Temp
69 73 70 69 58 53 47 54 58 59 59 62 66 66 61 60 59 50 69 75 75 74 75 75 75 76 76 76 76 76 77 77 77 77 77 77 77 76 76 76 75 75 75 75 75 75 74 74 74
68 78 69 61 52 44 47 54 58 60 64 68 67 63 62 58 67 67 66 75 76 75 76 75 73 75 76 76 76 76 76 77 77 77 77 77 76 76 76 75 75 75 74 74 74 74 73 73 73
73 76 63 56 49 46 49 54 59 62 63 62 64 64 60 60 64 66 70 76 76 76 76 75 73 75 76 75 75 76 76 76 76 77 76 76 76 75 75 74 74 74 74 74 74 73 73 72 72
71 67 63 54 49 55 56 57 63 63 63 68 62 57 62 67 66 69 74 76 75 76 76 73 74 76 76 75 75 75 76 76 76 76 76 76 75 75 74 74 73 73 73 73 72 72 71 71 71
67 61 53 49 51 55 57 64 63 62 61 63 62 55 58 66 70 71 72 75 73 72 74 74 73 75 75 75 75 75 75 75 75 75 76 75 75 74 74 73 73 72 72 72 71 71 70 70 70
62 59 50 46 50 57 58 62 63 61 61 61 60 57 55 62 68 67 69 68 72 73 72 73 69 70 73 74 74 75 75 75 75 75 75 75 74 74 74 73 72 72 72 71 71 70 70 70 70
58 53 48 48 52 56 61 63 58 62 59 60 64 55 55 60 63 67 66 66 68 69 70 70 70 68 68 71 71 72 73 74 74 73 73 72 72 73 72 72 72 72 72 71 70 70 70 70 69
59 56 50 48 53 53 62 63 64 64 59 65 63 55 52 58 65 66 64 64 64 65 65 66 70 71 69 69 68 69 70 71 71 71 69 68 69 69 69 68 71 72 71 70 69 69 69 70 69
60 51 47 52 54 56 61 60 62 63 63 60 59 56 59 64 66 63 60 60 60 63 62 63 63 66 71 72 68 66 68 69 68 67 65 64 67 69 68 67 69 70 70 69 69 69 67 66 65
55 48 51 56 56 57 62 61 63 60 58 55 55 59 62 61 60 58 56 55 55 56 58 59 60 62 65 72 71 68 69 69 70 68 66 67 68 67 66 63 65 67 67 68 68 68 66 62 58
55 52 57 58 60 62 62 60 62 60 53 56 56 57 59 58 57 56 54 54 54 53 56 57 58 59 61 64 69 69 67 66 66 67 68 66 66 65 62 61 61 61 62 64 63 60 60 59 57
52 59 60 61 61 61 58 61 58 58 55 57 58 59 57 56 55 54 53 53 53 54 53 54 55 57 59 61 69 67 65 64 63 65 68 66 65 65 64 64 64 62 63 62 61 60 60 58 58
54 57 61 61 59 58 61 57 57 54 55 58 59 58 55 54 54 54 54 54 53 51 51 53 54 56 58 61 65 64 61 61 62 64 65 64 63 64 63 62 61 61 60 59 59 59 59 55 58
57 58 59 60 60 59 57 55 56 55 55 56 57 54 53 54 53 51 52 51 52 51 50 52 56 56 58 62 60 60 61 61 61 61 61 61 61 60 60 59 58 58 58 58 55 56 54 56 55
58 52 57 58 59 57 58 53 55 56 55 55 54 52 52 53 53 50 51 51 49 50 50 52 56 56 56 57 57 58 58 59 58 58 58 56 56 55 56 56 55 56 55 55 55 55 54 52 54
51 49 45 55 58 56 56 47 56 55 54 52 51 49 51 52 52 50 51 50 49 49 49 51 55 53 55 56 56 57 58 58 58 56 54 55 55 54 54 54 54 54 54 53 50 51 50 48 48
46 41 45 52 56 54 52 48 52 54 54 51 50 48 50 49 48 49 50 48 48 48 50 52 53 53 54 55 56 56 56 55 55 55 52 52 54 54 52 50 49 49 48 48 49 48 46 44 45
43 42 47 46 54 51 48 49 52 54 53 52 50 48 48 48 48 49 49 48 48 48 49 52 52 53 54 54 54 53 52 51 52 50 49 50 51 51 51 49 47 48 47 46 46 46 44 42 42
49 45 45 50 55 51 48 49 52 54 51 50 48 49 49 49 47 48 49 48 48 48 51 52 52 53 54 53 51 50 48 48 47 46 46 47 47 47 47 46 45 45 43 42 44 44 43 42 41
49 46 45 50 53 50 48 48 52 52 54 55 55 51 50 45 44 47 46 46 47 48 49 52 53 55 55 55 52 50 47 45 43 44 44 44 44 45 45 43 42 41 42 41 40 40 39 39 40
48 45 44 48 48 48 44 43 48 53 54 54 57 56 52 47 45 44 45 45 46 47 49 53 54 54 53 51 50 47 45 43 43 41 41 41 42 42 42 41 40 39 40 38 37 37 38 36 37
44 51 51 49 43 37 44 36 44 48 51 51 55 50 50 46 46 46 45 43 45 47 53 54 53 52 51 51 48 46 44 40 37 38 38 39 40 40 41 40 40 38 38 37 37 37 36 36 33
47 49 47 45 40 36 38 34 41 50 51 55 54 53 49 47 46 45 45 46 44 47 50 50 50 50 48 47 45 43 40 40 40 38 37 37 38 38 39 38 38 37 37 35 35 34 34 34 33
50 47 45 41 39 29 40 38 40 47 52 55 50 46 46 45 45 45 44 44 42 44 46 46 44 43 44 45 43 42 40 39 38 36 36 36 36 37 37 38 36 35 34 33 33 32 32 32 32
48 42 31 28 26 30 39 35 46 48 52 53 50 46 45 46 44 43 42 42 40 39 39 41 42 41 42 42 42 41 40 40 39 37 36 36 36 35 35 35 34 33 34 33 32 31 31 31 30
42 42 32 24 25 28 34 31 42 49 49 47 50 50 47 45 45 43 42 41 41 40 39 40 39 40 41 42 41 41 41 41 40 39 38 37 36 35 34 33 33 33 33 33 32 30 30 29 28
41 39 48 35 20 23 33 38 46 44 45 43 44 46 44 44 44 42 41 41 40 39 39 41 41 40 40 41 41 40 39 39 38 36 36 35 35 36 33 33 32 32 32 32 30 29 28 28 28
44 46 35 33 22 20 30 32 39 41 44 42 41 42 43 43 42 41 41 41 41 41 39 38 39 40 39 39 40 40 38 37 37 37 35 34 34 34 33 32 31 31 31 30 29 27 28 27 26
41 38 39 40 32 24 23 37 44 48 49 42 44 44 44 44 42 42 42 41 40 39 39 39 39 38 38 39 37 37 36 37 36 35 34 33 32 32 31 31 30 30 29 29 28 27 27 27 27
42 42 40 33 30 30 29 40 46 45 47 45 45 46 47 47 45 43 43 40 40 40 39 38 38 38 37 38 37 36 36 35 34 34 33 31 31 31 30 30 30 29 29 28 28 28 27 26 27
MSLP
1013.47 1012.94 1013.10 1013.58 1015.30 1016.34 1016.90 1016.85 1016.38 1016.34 1016.16 1016.05 1016.12 1016.56 1018.10 1018.40 1018.87 1020.15 1019.73 1019.26 1019.49 1019.95 1020.32 1020.46 1020.74 1021.07 1021.32 1021.47 1021.61 1021.71 1021.82 1021.97 1022.10 1022.49 1022.59 1022.76 1022.87 1022.98 1023.08 1023.07 1023.01 1023.01 1023.11 1023.12 1023.09 1022.98 1022.88 1022.76 1022.58
1013.48 1013.04 1013.44 1014.50 1015.98 1017.17 1017.51 1016.78 1016.67 1016.23 1015.94 1016.33 1016.63 1017.27 1017.96 1019.28 1019.07 1019.41 1019.40 1019.03 1019.44 1019.82 1020.30 1020.65 1020.95 1021.22 1021.43 1021.54 1021.75 1021.89 1021.98 1022.14 1022.32 1022.56 1022.72 1023.00 1023.13 1023.27 1023.41 1023.43 1023.43 1023.42 1023.46 1023.40 1023.36 1023.23 1023.14 1023.01 1022.94
1013.38 1013.41 1014.75 1015.36 1016.58 1017.01 1016.98 1016.69 1016.35 1016.11 1015.88 1016.16 1016.76 1017.54 1018.53 1019.66 1019.53 1019.53 1019.20 1018.90 1019.54 1019.83 1020.19 1020.62 1020.96 1021.21 1021.52 1021.72 1021.87 1022.03 1022.24 1022.43 1022.58 1022.77 1022.99 1023.16 1023.30 1023.55 1023.71 1023.73 1023.79 1023.75 1023.77 1023.78 1023.71 1023.68 1023.54 1023.52 1023.38
1013.54 1014.04 1015.21 1015.80 1016.59 1016.34 1016.18 1016.32 1015.86 1016.02 1015.90 1016.16 1017.07 1018.78 1019.31 1019.68 1019.49 1019.47 1019.20 1019.06 1019.47 1019.78 1020.17 1020.64 1020.98 1021.25 1021.52 1021.72 1021.98 1022.14 1022.35 1022.54 1022.73 1022.89 1023.06 1023.26 1023.47 1023.66 1023.75 1023.82 1024.01 1024.08 1024.13 1024.15 1024.13 1024.03 1024.04 1024.01 1023.86
1013.99 1014.98 1015.81 1016.34 1016.24 1016.10 1015.81 1015.53 1015.68 1016.02 1016.19 1016.72 1017.04 1019.23 1019.90 1020.05 1019.82 1019.66 1019.58 1019.22 1019.70 1019.98 1020.22 1020.59 1020.98 1021.32 1021.61 1021.85 1022.09 1022.27 1022.45 1022.67 1022.79 1022.95 1023.09 1023.38 1023.54 1023.78 1023.83 1023.97 1024.10 1024.28 1024.38 1024.41 1024.44 1024.39 1024.40 1024.34 1024.31
1014.81 1015.51 1016.46 1016.59 1016.10 1015.71 1015.48 1015.11 1015.35 1015.79 1016.21 1017.06 1018.10 1019.23 1020.43 1020.45 1020.15 1020.29 1020.08 1020.14 1019.93 1020.03 1020.46 1020.74 1021.17 1021.29 1021.56 1021.79 1021.99 1022.22 1022.48 1022.67 1022.83 1023.06 1023.20 1023.45 1023.73 1023.87 1024.08 1024.24 1024.46 1024.68 1024.85 1024.85 1024.77 1024.80 1024.78 1024.73 1024.74
1015.32 1016.33 1016.72 1016.46 1016.29 1015.78 1015.43 1015.12 1015.54 1015.91 1016.42 1017.13 1017.74 1019.61 1020.69 1020.54 1020.58 1020.51 1020.63 1020.62 1020.66 1020.90 1020.96 1021.12 1021.26 1021.53 1021.71 1021.88 1022.10 1022.33 1022.52 1022.77 1022.94 1023.04 1023.22 1023.52 1023.81 1024.03 1024.25 1024.48 1024.72 1024.99 1025.12 1025.14 1025.26 1025.22 1025.32 1025.25 1025.05
1015.43 1016.43 1016.60 1016.17 1016.18 1015.82 1015.36 1015.36 1015.69 1016.07 1016.82 1017.07 1017.89 1019.61 1020.81 1020.52 1020.52 1020.70 1020.91 1021.22 1021.40 1021.41 1021.71 1021.77 1021.60 1021.55 1021.77 1021.94 1022.08 1022.34 1022.59 1022.79 1022.96 1023.14 1023.36 1023.66 1023.96 1024.20 1024.47 1024.66 1024.76 1024.95 1025.09 1025.24 1025.38 1025.42 1025.44 1025.32 1025.26
1015.32 1016.53 1016.88 1016.29 1015.78 1015.76 1015.50 1015.55 1015.69 1016.17 1017.05 1018.19 1019.17 1019.66 1020.10 1020.26 1020.60 1021.14 1021.68 1021.94 1022.00 1022.04 1022.01 1021.92 1021.98 1021.83 1021.59 1021.80 1021.97 1022.17 1022.32 1022.53 1022.76 1023.10 1023.43 1023.78 1024.04 1024.27 1024.51 1024.69 1024.79 1025.00 1025.24 1025.46 1025.58 1025.63 1025.74 1025.76 1025.72
1015.88 1016.83 1016.59 1016.18 1015.88 1015.66 1015.63 1015.77 1016.06 1016.72 1017.81 1019.14 1020.00 1020.27 1020.38 1020.59 1020.94 1021.57 1022.19 1022.63 1022.65 1022.75 1022.67 1022.52 1022.40 1022.32 1022.13 1021.79 1021.85 1022.08 1022.18 1022.39 1022.55 1022.96 1023.34 1023.67 1024.03 1024.32 1024.63 1024.98 1025.20 1025.24 1025.32 1025.47 1025.70 1025.82 1025.85 1026.03 1026.11
1015.89 1016.37 1016.27 1016.18 1015.99 1015.71 1015.77 1016.07 1016.30 1017.05 1018.49 1019.07 1019.78 1020.59 1020.89 1021.26 1021.74 1022.07 1022.51 1022.63 1022.70 1022.86 1022.87 1022.80 1022.65 1022.43 1022.36 1022.22 1021.88 1022.00 1022.17 1022.69 1022.99 1022.88 1023.10 1023.53 1024.04 1024.48 1024.94 1025.24 1025.40 1025.55 1025.42 1025.57 1025.77 1025.97 1026.09 1026.22 1026.35
1016.05 1016.03 1016.10 1016.17 1016.08 1016.12 1016.22 1016.31 1016.76 1017.52 1018.76 1019.12 1019.66 1020.39 1021.02 1021.62 1022.04 1022.33 1022.61 1022.77 1022.88 1023.09 1023.21 1023.10 1022.85 1022.61 1022.29 1022.23 1021.92 1022.20 1022.72 1023.08 1023.30 1023.28 1023.29 1023.64 1024.13 1024.48 1024.86 1025.06 1025.30 1025.53 1025.50 1025.55 1025.80 1025.95 1026.05 1026.25 1026.27
1016.20 1016.19 1016.13 1016.30 1016.35 1016.48 1016.56 1016.85 1017.35 1018.39 1019.18 1019.63 1020.15 1020.79 1021.50 1021.86 1022.22 1022.52 1022.74 1023.01 1023.17 1023.40 1023.49 1023.32 1022.98 1022.65 1022.34 1022.21 1022.22 1022.52 1023.08 1023.36 1023.54 1023.53 1023.74 1023.93 1024.33 1024.68 1024.97 1025.36 1025.52 1025.74 1025.78 1025.98 1026.22 1026.27 1026.47 1026.50 1026.61
1016.36 1016.45 1016.44 1016.46 1016.59 1016.72 1017.06 1017.41 1017.85 1018.52 1019.25 1019.95 1020.47 1021.17 1021.71 1021.97 1022.32 1022.70 1022.91 1023.14 1023.31 1023.54 1023.51 1023.32 1023.00 1022.76 1022.44 1022.44 1022.70 1023.02 1023.24 1023.53 1023.82 1024.09 1024.41 1024.54 1024.81 1025.21 1025.54 1026.00 1026.16 1026.19 1026.33 1026.45 1026.61 1026.77 1027.07 1026.95 1027.05
1016.51 1016.85 1016.75 1016.54 1016.73 1017.06 1017.30 1017.91 1017.85 1018.29 1019.33 1020.03 1020.69 1021.23 1021.76 1022.05 1022.37 1022.73 1022.84 1023.08 1023.35 1023.52 1023.48 1023.25 1023.17 1023.15 1022.85 1023.06 1023.25 1023.58 1023.82 1024.14 1024.45 1024.87 1025.08 1025.34 1025.47 1025.78 1025.99 1026.30 1026.54 1026.78 1027.06 1026.95 1027.16 1027.28 1027.44 1027.53 1027.48
1017.07 1017.31 1017.36 1016.47 1016.72 1017.27 1017.62 1017.67 1017.55 1018.31 1019.08 1020.08 1020.70 1021.22 1021.63 1022.03 1022.33 1022.61 1022.75 1023.08 1023.32 1023.42 1023.48 1023.38 1023.32 1023.47 1023.40 1023.37 1023.66 1024.08 1024.51 1024.80 1025.03 1025.45 1025.81 1026.04 1026.19 1026.44 1026.60 1026.81 1027.16 1027.36 1027.38 1027.47 1027.75 1027.88 1028.08 1028.24 1028.23
1017.85 1017.83 1017.62 1016.98 1016.88 1017.40 1017.97 1017.96 1017.95 1018.54 1019.11 1019.90 1020.41 1021.06 1021.48 1021.97 1022.41 1022.59 1022.72 1023.02 1023.18 1023.25 1023.33 1023.51 1023.69 1023.69 1023.77 1023.87 1024.12 1024.48 1024.95 1025.38 1025.77 1025.98 1026.40 1026.49 1026.54 1026.71 1026.93 1027.40 1027.77 1027.72 1027.89 1028.01 1028.11 1028.45 1028.60 1028.67 1028.63
1018.19 1018.14 1017.55 1017.21 1017.23 1017.39 1018.09 1018.00 1018.10 1018.54 1019.00 1019.33 1019.83 1020.51 1021.07 1021.48 1021.97 1022.42 1022.63 1022.89 1023.02 1023.11 1023.23 1023.50 1023.83 1023.93 1024.01 1024.21 1024.53 1025.02 1025.51 1026.03 1026.25 1026.53 1026.89 1026.97 1027.07 1027.15 1027.30 1027.71 1028.00 1028.07 1028.25 1028.49 1028.59 1028.85 1029.10 1029.24 1029.28
1017.79 1017.90 1017.68 1017.09 1016.88 1017.47 1017.71 1017.68 1017.66 1017.91 1018.57 1018.84 1019.38 1019.70 1020.21 1020.73 1021.42 1021.95 1022.38 1022.76 1022.98 1023.07 1023.18 1023.36 1023.67 1024.00 1024.04 1024.41 1024.77 1025.38 1026.04 1026.67 1026.89 1027.30 1027.56 1027.66 1027.82 1028.04 1028.21 1028.51 1028.68 1028.81 1029.06 1029.46 1029.11 1029.31 1029.42 1029.57 1029.57
1017.86 1017.88 1017.54 1017.17 1017.05 1017.61 1017.57 1017.54 1017.11 1017.24 1017.13 1017.18 1017.64 1018.42 1019.18 1020.33 1021.23 1021.76 1022.19 1022.52 1022.73 1022.78 1022.83 1023.05 1023.29 1023.72 1024.03 1024.27 1024.85 1025.45 1026.49 1027.39 1027.58 1027.83 1028.19 1028.32 1028.55 1028.71 1028.86 1029.12 1029.36 1029.58 1029.64 1029.88 1030.15 1029.91 1030.26 1030.68 1030.39
1017.64 1017.58 1017.53 1017.68 1017.60 1017.76 1017.83 1017.28 1016.80 1015.90 1015.80 1015.89 1016.35 1016.92 1017.98 1018.95 1020.15 1021.19 1021.85 1022.31 1022.48 1022.58 1022.66 1022.75 1023.04 1023.50 1023.95 1024.43 1025.14 1026.08 1027.03 1027.78 1028.13 1028.42 1028.67 1029.14 1029.10 1029.30 1029.53 1029.88 1030.06 1030.27 1030.37 1030.75 1030.99 1030.97 1030.74 1031.40 1031.42
1017.31 1017.02 1017.26 1017.77 1018.46 1018.42 1018.08 1016.61 1015.98 1015.37 1015.23 1015.22 1015.16 1015.94 1016.94 1018.36 1019.54 1020.42 1021.38 1022.08 1022.26 1022.34 1022.37 1022.66 1022.98 1023.45 1024.06 1024.49 1025.31 1025.87 1026.67 1027.70 1028.69 1028.74 1029.26 1029.53 1029.68 1029.86 1030.05 1030.24 1030.47 1030.66 1030.93 1031.16 1031.35 1031.49 1031.57 1031.70 1032.14
1016.99 1017.04 1017.58 1018.09 1018.75 1019.03 1018.68 1018.36 1014.88 1014.69 1014.54 1014.08 1013.78 1014.91 1016.02 1017.24 1018.47 1019.68 1020.65 1021.53 1022.06 1022.29 1022.44 1022.76 1023.10 1023.54 1024.07 1024.66 1025.37 1026.09 1027.11 1027.97 1028.62 1029.12 1029.59 1030.10 1030.39 1030.40 1030.55 1030.72 1030.95 1031.38 1031.77 1032.10 1032.13 1032.25 1032.23 1032.53 1032.60
1017.10 1017.71 1018.54 1019.12 1019.69 1019.44 1018.51 1018.43 1013.84 1014.08 1012.93 1012.64 1013.12 1014.33 1015.70 1017.03 1018.25 1019.28 1020.27 1021.11 1021.91 1022.37 1022.66 1022.96 1023.26 1023.76 1024.11 1024.63 1025.42 1026.08 1026.87 1027.95 1028.74 1029.44 1029.87 1030.36 1030.59 1030.68 1030.85 1030.98 1031.34 1031.92 1032.16 1032.31 1032.58 1032.80 1033.04 1033.29 1033.37
1017.04 1018.33 1019.79 1020.60 1020.85 1018.86 1017.78 1017.53 1013.28 1012.90 1012.21 1012.17 1012.76 1013.81 1015.21 1016.47 1017.79 1018.90 1019.89 1020.83 1021.64 1022.27 1022.75 1023.20 1023.38 1023.92 1024.22 1024.79 1025.57 1026.30 1027.06 1027.69 1028.24 1028.86 1029.40 1029.99 1030.52 1030.91 1031.24 1031.38 1031.91 1032.19 1032.19 1032.40 1032.72 1033.30 1033.49 1033.62 1033.84
1016.83 1017.46 1018.68 1019.62 1020.41 1019.33 1018.40 1016.13 1012.88 1011.76 1011.54 1011.91 1012.31 1013.12 1014.67 1016.17 1017.29 1018.31 1019.29 1020.48 1021.44 1022.12 1022.63 1023.08 1023.46 1023.97 1024.35 1024.83 1025.55 1026.32 1026.98 1027.58 1028.22 1028.68 1029.38 1030.01 1030.49 1030.93 1031.36 1031.66 1032.08 1032.27 1032.34 1032.69 1033.26 1033.60 1033.84 1034.03 1034.25
1016.82 1017.12 1017.34 1018.98 1020.32 1019.87 1017.09 1014.58 1012.69 1012.12 1012.05 1012.38 1012.69 1013.51 1014.55 1015.56 1016.63 1017.94 1019.11 1020.04 1020.99 1021.83 1022.45 1022.90 1023.41 1023.95 1024.35 1024.87 1025.60 1026.39 1027.03 1027.58 1028.16 1028.87 1029.37 1029.90 1030.62 1031.13 1031.72 1032.05 1032.17 1032.32 1032.60 1032.99 1033.34 1033.75 1034.25 1034.40 1034.66
1015.56 1016.32 1017.87 1019.17 1020.08 1018.91 1016.10 1014.33 1012.25 1011.98 1011.98 1012.40 1013.16 1013.84 1014.81 1015.79 1016.84 1017.75 1018.63 1019.65 1020.67 1021.54 1022.25 1022.84 1023.31 1023.71 1024.20 1024.81 1025.48 1026.19 1026.88 1027.47 1028.08 1028.61 1029.39 1030.04 1030.68 1031.32 1031.77 1032.02 1032.13 1032.49 1032.82 1033.10 1033.58 1034.07 1034.30 1034.54 1034.82
1015.49 1015.84 1016.39 1017.13 1018.04 1017.48 1015.77 1011.75 1010.20 1010.24 1010.53 1011.58 1012.44 1013.12 1013.97 1015.13 1016.19 1017.25 1018.33 1019.37 1020.30 1021.31 1022.09 1022.71 1023.24 1023.69 1024.35 1024.97 1025.63 1026.32 1026.95 1027.41 1027.85 1028.41 1029.23 1029.95 1030.45 1031.04 1031.35 1031.67 1032.21 1032.67 1033.13 1033.33 1033.60 1034.00 1034.25 1034.61 1034.68
1013.99 1014.23 1014.78 1015.67 1016.25 1016.02 1015.00 1008.28 1009.47 1009.59 1010.18 1010.90 1011.70 1012.66 1013.59 1014.49 1015.68 1016.81 1017.78 1018.93 1019.96 1020.81 1021.60 1022.22 1022.84 1023.41 1024.04 1024.70 1025.42 1026.11 1026.61 1027.22 1027.98 1028.82 1029.42 1029.91 1030.09 1030.68 1031.19 1031.81 1032.28 1032.56 1033.00 1033.46 1033.77 1033.87 1034.33 1034.42 1034.68
Wind_Speed
7 8 0 5 6 6 2 3 4 3 4 3 6 15 10 4 4 6 5 6 13 11 8 8 11 11 11 10 10 9 10 11 14 14 16 16 16 16 16 16 15 15 15 15 15 15 15 15 15
5 5 5 3 6 5 3 4 8 4 5 10 9 6 9 6 5 5 3 1 16 13 10 9 11 12 11 10 10 10 10 11 13 14 15 15 16 16 16 15 15 15 15 15 15 15 15 14 15
3 1 4 5 3 4 4 4 7 4 3 2 5 6 5 3 2 3 3 6 12 12 10 11 12 12 11 10 9 9 10 10 11 12 13 14 15 16 15 16 16 16 15 15 15 15 15 14 14
3 5 5 6 3 7 7 6 8 6 3 8 6 8 5 4 3 4 4 8 9 9 11 13 12 11 12 11 9 9 9 10 10 12 12 14 15 15 15 16 15 15 15 15 15 15 15 14 14
4 4 4 5 4 4 3 7 7 5 4 5 5 4 5 4 6 5 8 6 9 8 9 10 11 10 11 11 10 9 9 9 9 10 12 14 14 14 15 15 15 14 14 14 14 14 14 14 14
5 4 5 1 4 4 3 3 3 4 4 5 8 6 3 2 7 6 9 9 8 8 7 8 9 9 10 11 10 10 9 9 10 10 11 13 13 13 14 14 14 13 13 13 14 13 13 13 13
4 4 3 2 4 4 5 3 3 6 4 4 7 6 3 2 2 7 8 9 11 10 9 5 5 7 8 7 7 8 8 8 8 8 9 11 11 12 12 12 13 13 13 13 13 14 13 13 14
5 5 4 1 5 3 6 4 4 7 1 3 3 6 5 5 4 8 8 8 8 8 7 6 6 4 5 5 8 8 8 7 7 7 8 10 11 11 10 10 11 13 13 14 13 12 12 13 13
3 6 2 5 3 5 4 4 2 2 6 5 5 4 5 7 7 7 6 6 6 6 7 7 7 6 4 2 6 8 8 9 9 8 9 8 5 6 8 6 10 12 12 13 11 11 9 8 8
5 4 1 1 3 4 5 4 7 5 4 4 5 4 5 5 5 8 6 5 4 4 4 5 5 4 4 2 3 5 5 4 5 5 6 5 6 4 5 6 7 9 11 11 9 8 9 7 4
2 4 3 3 2 5 4 4 3 6 3 5 8 9 5 7 8 8 6 5 4 4 3 5 4 2 1 3 1 0 3 2 3 3 4 5 5 5 4 3 3 2 6 3 5 5 4 6 4
3 1 3 2 3 3 2 2 2 3 5 4 10 9 7 9 7 6 6 5 5 5 5 5 5 4 2 1 3 3 6 5 4 6 8 6 5 5 4 3 3 3 3 4 4 3 4 5 5
2 2 2 4 2 1 1 1 3 5 7 8 9 9 9 8 7 6 7 6 5 5 3 4 5 5 4 2 5 6 6 5 6 6 6 5 5 5 5 4 4 4 4 4 4 4 3 4 4
2 3 3 4 5 2 3 2 1 4 8 9 9 9 8 8 7 5 6 4 5 4 3 3 4 6 5 6 7 6 6 6 6 7 6 7 5 5 6 5 5 5 4 3 4 4 4 4 4
2 2 5 5 6 3 4 6 10 7 9 10 9 8 8 7 7 6 5 5 6 3 2 3 5 4 8 8 8 6 7 7 7 6 9 7 7 7 6 5 5 5 4 5 4 5 4 5 4
1 1 1 4 9 3 5 9 4 10 12 10 10 8 8 7 7 7 7 7 6 5 5 5 5 5 7 9 8 7 7 7 8 7 6 7 8 7 7 7 6 5 5 5 4 5 5 5 4
3 4 6 6 5 5 4 7 1 5 7 9 9 9 8 7 6 6 6 7 7 7 7 7 5 7 8 9 9 10 10 8 7 7 6 7 8 9 8 6 5 5 5 5 4 6 4 4 4
6 4 5 5 7 4 5 11 4 9 8 11 10 10 10 10 9 8 8 7 7 7 7 7 6 7 9 8 9 8 8 7 7 7 6 7 7 9 8 7 7 6 6 6 5 6 5 3 3
3 3 4 5 4 5 10 9 10 11 8 9 10 11 13 12 8 8 7 7 7 7 8 9 10 8 7 7 7 5 5 6 8 7 8 8 7 8 8 7 7 7 8 5 6 3 7 8 5
8 8 9 6 4 5 6 11 10 7 14 15 18 16 14 9 9 8 8 8 7 8 9 11 11 10 7 5 6 5 5 6 6 7 9 8 8 7 8 7 7 6 7 9 7 5 3 5 8
7 7 5 8 1 3 4 8 8 9 11 10 15 11 11 18 16 11 9 8 8 8 10 11 10 8 7 11 10 10 9 5 6 6 7 6 8 8 9 8 7 7 6 7 6 5 6 4 5
8 7 6 5 1 6 4 10 7 5 10 10 18 14 17 16 11 13 11 8 8 8 8 7 9 10 10 11 11 12 8 9 2 5 5 7 7 8 8 8 8 8 6 7 6 5 5 4 5
7 2 2 3 4 1 3 5 7 9 13 19 17 15 15 17 18 17 15 11 7 7 7 8 9 9 9 10 8 9 10 8 7 7 10 8 7 7 8 7 8 8 6 6 7 7 8 4 4
7 6 6 5 3 6 12 9 7 10 16 12 6 9 15 17 15 14 12 11 8 6 7 8 9 7 8 10 11 12 15 13 10 8 8 6 5 5 7 9 8 6 6 6 6 6 7 6 6
5 8 2 4 1 10 5 9 19 5 9 10 11 12 14 16 16 16 17 15 11 10 8 7 9 8 8 12 12 12 13 13 13 11 9 10 6 5 6 7 6 4 5 6 6 6 6 5 5
8 10 9 9 6 5 3 10 9 10 7 6 8 16 17 17 16 17 17 14 12 11 10 8 8 9 10 12 12 11 11 8 8 8 8 6 7 6 6 6 6 6 7 6 6 4 4 5 5
6 9 4 2 2 2 7 8 8 4 7 3 7 13 16 17 17 17 15 14 13 11 11 12 11 9 10 11 10 10 8 9 8 8 7 7 7 6 6 6 7 7 7 6 6 4 5 5 4
7 7 3 1 3 7 5 8 11 6 13 8 8 11 11 12 13 15 15 14 12 12 8 9 9 12 10 10 10 10 9 8 9 9 10 9 7 6 7 7 7 6 6 6 6 5 4 5 2
6 5 5 5 6 6 4 10 7 11 12 12 14 15 15 16 15 14 13 12 12 10 10 11 11 11 11 10 8 10 9 10 9 10 9 9 8 8 7 7 7 6 6 6 6 6 5 5 3
3 7 7 7 7 6 3 23 5 3 4 9 11 13 13 15 15 14 14 13 13 14 12 13 11 12 11 11 10 10 10 10 10 9 9 7 9 7 7 7 7 7 6 6 6 6 4 4 3
Wind_Direction
318 304 184 43 57 69 75 21 114 76 51 13 63 89 103 67 83 149 237 99 127 136 134 126 123 118 113 106 100 101 108 112 108 106 100 96 92 87 83 77 70 69 65 60 56 56 54 51 51
318 329 38 77 82 74 269 114 86 102 157 117 97 97 61 68 39 92 50 29 148 136 139 134 132 127 124 119 111 104 107 114 115 113 108 103 97 91 87 82 77 73 67 61 58 55 54 55 50
284 129 76 91 94 145 138 149 131 145 161 187 109 60 70 344 22 92 198 124 148 137 141 142 142 138 131 123 115 107 101 109 116 115 111 106 99 95 88 80 74 71 66 61 58 56 58 56 53
13 14 26 77 97 354 125 169 137 133 18 81 120 66 55 313 97 138 37 120 122 153 139 145 145 144 143 137 127 124 120 120 124 120 120 113 107 103 97 90 83 76 69 63 58 56 56 54 51
36 61 45 111 84 97 76 140 133 149 148 79 109 119 86 22 63 63 62 111 112 113 126 135 137 150 149 143 136 135 131 128 126 125 123 125 118 113 105 99 93 86 82 76 72 68 63 59 54
23 86 50 4 128 122 75 88 97 102 132 112 75 98 116 339 55 32 54 49 76 111 122 122 111 113 148 149 149 146 145 140 136 132 132 132 125 117 108 103 99 91 84 78 74 71 65 61 56
98 74 211 94 149 126 147 116 58 152 107 75 142 89 160 60 47 81 76 60 56 52 61 61 127 127 131 145 147 150 150 142 136 130 135 131 128 120 118 117 114 106 95 79 73 71 66 59 51
94 90 338 331 196 170 171 104 119 93 94 101 80 150 181 206 133 92 71 67 60 52 67 51 37 129 163 160 158 150 145 144 139 129 124 126 131 129 133 135 126 112 99 85 77 77 70 62 56
62 60 342 315 126 162 184 117 55 140 99 59 21 100 157 170 131 105 91 67 46 42 37 35 31 21 38 57 162 162 171 159 152 145 135 132 136 141 146 143 136 121 105 92 82 81 80 67 51
81 92 263 347 340 153 169 118 157 108 127 70 64 65 92 86 117 109 105 89 83 75 53 47 34 24 354 259 148 166 169 171 158 155 157 154 148 139 113 104 76 105 109 101 86 72 74 64 50
28 152 306 350 69 36 135 107 180 133 147 202 175 161 132 98 94 107 106 108 103 101 64 44 22 340 329 294 193 150 137 83 64 102 146 129 120 117 108 108 109 125 109 97 78 70 55 62 52
57 150 92 313 26 43 74 99 116 91 149 113 126 144 126 121 116 117 112 103 89 76 50 11 2 355 257 175 197 87 93 80 68 62 82 102 109 111 116 105 98 80 73 81 87 85 86 64 66
129 271 100 123 88 41 26 133 183 147 154 125 121 112 129 130 133 117 114 98 103 82 41 358 343 320 294 157 95 89 91 86 79 66 61 78 92 100 93 84 74 60 62 67 70 59 50 66 42
185 343 286 191 186 210 173 257 132 176 155 141 136 139 139 137 145 118 110 113 94 100 59 343 27 17 75 77 88 92 96 89 76 60 53 56 71 86 84 68 58 62 60 67 59 57 35 48 43
90 332 305 230 196 218 151 290 226 177 164 156 160 154 145 152 123 148 141 131 131 114 100 64 70 39 76 89 84 80 75 76 78 71 62 62 73 76 86 86 70 60 48 64 60 58 48 41 34
204 102 297 267 156 196 117 267 277 172 155 175 173 171 161 167 154 153 143 127 134 130 117 84 91 83 89 93 92 90 84 83 82 79 67 66 76 82 85 76 67 53 57 59 56 49 40 29 27
322 230 214 299 169 127 159 264 212 158 169 186 192 185 176 171 158 156 148 145 145 147 133 108 107 101 99 95 95 87 83 77 73 71 64 57 74 74 81 78 68 66 62 52 66 55 58 22 6
210 225 259 229 222 154 185 256 224 209 192 204 199 188 187 183 184 169 152 149 147 146 127 121 119 117 114 109 99 89 81 75 69 66 61 56 64 71 84 78 67 60 66 54 59 69 39 36 6
212 225 249 268 227 146 217 245 230 217 222 216 213 203 196 187 168 159 155 153 147 144 137 141 137 142 133 130 119 99 97 88 76 68 54 55 59 60 72 74 70 58 63 57 52 76 55 31 5
246 258 267 288 205 166 261 249 250 203 224 209 210 209 196 158 161 161 160 162 173 160 153 154 152 156 157 130 110 106 108 85 89 82 67 57 60 66 78 79 72 60 72 57 47 41 69 47 20
217 205 231 224 255 259 289 269 246 241 224 216 227 217 191 174 166 164 172 175 170 166 166 161 161 152 121 116 110 106 101 88 91 76 79 57 70 72 79 76 79 71 72 71 55 43 60 97 28
236 207 207 239 199 247 158 281 250 232 243 215 227 196 186 176 164 161 169 174 175 175 162 144 132 129 129 131 132 138 131 130 126 111 101 86 74 80 81 81 79 77 75 73 69 52 56 67 57
230 115 169 212 197 313 251 296 261 210 249 251 236 212 186 173 163 168 172 169 169 152 140 134 132 134 139 135 130 125 117 121 125 109 105 93 82 79 80 85 82 76 70 69 72 61 62 55 87
152 78 41 40 81 256 229 202 219 224 233 255 230 187 169 165 167 162 157 147 155 151 140 142 134 139 141 137 136 137 137 138 132 128 120 119 113 104 89 87 84 81 87 84 83 78 74 73 71
125 105 297 323 304 245 229 219 252 261 249 231 214 183 168 164 162 161 161 166 161 163 156 151 146 147 137 134 134 139 142 143 144 144 144 139 126 108 105 96 98 108 110 103 93 84 76 72 83
194 163 163 214 210 260 14 240 248 227 249 280 221 181 166 166 169 168 166 163 164 166 163 157 151 145 144 139 139 142 146 146 145 144 140 125 124 126 126 126 123 119 107 91 87 84 87 86 85
203 209 183 15 35 16 217 282 294 253 266 264 180 165 176 172 169 166 164 167 169 167 169 163 155 150 146 142 139 143 142 143 142 130 122 127 124 131 134 133 122 100 93 102 107 98 90 86 77
148 160 96 74 223 253 261 248 231 214 242 213 198 186 180 171 166 169 170 168 170 172 163 153 157 157 150 139 143 143 140 134 134 133 135 139 141 131 133 124 114 113 113 111 106 103 98 97 71
160 196 198 134 162 196 286 257 213 217 222 199 205 194 182 179 176 173 172 169 167 161 163 164 161 154 149 145 136 140 143 142 138 141 146 152 140 145 141 135 131 131 126 125 119 125 120 117 112
278 188 166 158 219 237 180 260 172 132 252 196 203 193 186 182 176 173 170 162 165 172 173 174 166 159 159 153 148 151 149 144 143 150 157 152 147 147 140 140 137 142 140 141 139 135 143 148 161